Flag Weather past 2 weeks in Reinach, Basel-Land, Switzerland

Now
46 °F

Overcast.


Feels Like: 43 °F
Forecast: 37 / 52 °F
Wind: 5 mph from Northeast

Location: Bale-Mulhouse

Current Time: Nov 27, 2014 at 8:37:54 PM

Latest Report: Nov 27, 2014 at 8:00 PM


Visibility: 7 mi

Pressure: 29.78 "Hg

Humidity: 91%

Dew point: 43 °F

Location of ReinachLocation

Historic Weather in Reinach — Graph

°F

Reinach temperature yesterday

Maximum temperature yesterday: 52 °F (at 2:00 PM)
Minimum temperature yesterday: 44 °F (at 6:00 AM)
Average temperature yesterday: 47 °F

Past Weeks' High & Low Weather Summary

 TemperatureHumidityPressure
High58 °F (Nov 24, 2:00 PM)100% (Nov 20, 8:00 AM)30.30 "Hg (Nov 20, 8:00 AM)
Low33 °F (Nov 20, 2:00 AM)63% (Nov 16, 3:00 PM)29.59 "Hg (Nov 16, 3:00 PM)
Average46 °F91%29.97 "Hg
* Reported Nov 12 7:00 PM — Nov 27 7:00 PM, Reinach, Weather by CustomWeather, © 2014

Note: Actual official high and low records may vary slightly from our data, if they occured in-between our weather recording intervals... More about our weather records

Advertising

Reinach weather history for previous 24 hours

 ConditionsComfort  
Time TempWeatherWind HumidityBarometerVisibility
7:00 PM
Nov 27
45 °FPassing clouds.5 mph91%29.78 "Hg7 mi
6:00 PM46 °FCool.6 mph88%29.77 "Hg12 mi
5:00 PM48 °FCool.6 mph84%29.77 "Hg14 mi
4:00 PM51 °FPartly sunny.7 mph79%29.75 "Hg16 mi
3:00 PM51 °FOvercast.7 mph77%29.75 "Hg16 mi
2:00 PM52 °FCool.7 mph74%29.76 "Hg16 mi
1:00 PM51 °FOvercast.7 mph80%29.78 "Hg22 mi
12:00 PM47 °FLow clouds.6 mph94%29.80 "Hg4 mi
11:00 AM46 °FLow clouds.7 mph97%29.81 "Hg3 mi
10:00 AM45 °FLow clouds.5 mph98%29.81 "Hg3 mi
9:00 AM45 °FOvercast.5 mph98%29.82 "Hg2 mi
8:00 AM44 °FLow clouds.5 mph98%29.81 "Hg2 mi
7:00 AM44 °FFog.3 mph99%29.81 "Hg1 mi
6:00 AM43 °FFog.5 mph98%29.82 "Hg1 mi
5:00 AM44 °FFog.5 mph98%29.84 "Hg1 mi
4:00 AM44 °FDense fog.5 mph98%29.85 "Hg1 mi
3:00 AM45 °FLow clouds.5 mph97%29.87 "Hg2 mi
2:00 AM45 °FLow clouds.3 mph96%29.88 "Hg2 mi
1:00 AM47 °FOvercast.5 mph88%29.89 "Hg11 mi
12:00 AM47 °FOvercast.3 mph89%29.90 "Hg5 mi
11:00 PM
Nov 26
47 °FOvercast.5 mph89%29.91 "Hg5 mi
10:00 PM47 °FOvercast.2 mph95%29.92 "Hg4 mi
9:00 PM47 °FOvercast.5 mph95%29.93 "Hg4 mi
8:00 PM48 °FOvercast.3 mph94%29.93 "Hg4 mi
Weather by CustomWeather, © 2014

See weather overviewHow to use our weather pages